Location: Mentone
(34.5413°N, 85.5351°W)
Time: 19:48:10
(UTC-05:00)

AO-Echo - Visible Passes

Search period start: 20 August 2017 00:00
Search period end: 30 August 2017 00:00
Orbit: 692 x 812 km, 98.4° (Epoch: 20 August)

Date Brightness Start Highest point End Pass type
(mag) Time Alt. Az. Time Alt. Az. Time Alt. Az.
20 Aug ? 02:15:37 10° N 02:16:40 17° N 02:16:40 17° N visible
21 Aug ? 01:35:16 10° NNE 01:35:36 12° NNE 01:35:36 12° NNE visible
21 Aug ? 03:15:16 10° NNW 03:15:31 11° NNW 03:15:31 11° NNW visible
22 Aug ? 02:33:31 10° N 02:34:27 15° N 02:34:27 15° N visible
23 Aug ? 01:52:48 10° NNE 01:53:23 13° NNE 01:53:23 13° NNE visible
24 Aug ? 02:51:35 10° NNW 02:52:15 13° NNW 02:52:15 13° NNW visible
25 Aug ? 02:10:31 10° N 02:11:11 14° N 02:11:11 14° N visible
26 Aug ? 03:09:54 10° NNW 03:10:02 10° NNW 03:10:02 10° NNW visible
27 Aug ? 02:28:21 10° N 02:28:58 14° N 02:28:58 14° N visible
28 Aug ? 01:47:45 10° NNE 01:47:54 11° NNE 01:47:54 11° NNE visible
29 Aug ? 02:46:23 10° N 02:46:46 12° NNW 02:46:46 12° NNW visible
